K4AVM-13 Weather Reports


Display with metric or nautical units.
time (UTC)temp
F
wind
direction
speed
MPH
gust
MPH
rain 1hr
in
rain 24hr
in
rain mn
in
humidity
%
barometer
mb
20260903115531 76 208 0.0 0.0 0.00 0.01 0.01 99 1018.8
20260903115026 75 211 0.0 0.0 0.00 0.01 0.01 99 1018.8
20260903114521 75 211 0.0 0.0 0.00 0.01 0.01 99 1018.8
20260903114017 75 237 0.0 0.0 0.00 0.01 0.01 99 1018.5
20260903113513 75 237 0.0 0.0 0.00 0.01 0.01 99 1018.8
20260903113009 74 237 0.0 0.0 0.00 0.01 0.01 99 1018.6
20260903112504 74 237 0.0 0.0 0.00 0.01 0.01 99 1018.5
20260903112003 74 237 0.0 0.0 0.00 0.01 0.01 99 1018.4
20260903111457 74 224 0.0 0.0 0.00 0.01 0.01 99 1018.3
20260903110954 74 224 0.0 0.0 0.00 0.01 0.01 99 1018.4
20260903110449 73 224 0.0 0.0 0.05 0.01 0.01 99 1018.2
20260903105943 73 224 0.0 0.0 0.05 0.01 0.01 99 1018.2
20260903105439 74 225 0.0 0.0 0.00 0.00 0.00 99 1018.2
20260903104938 74 227 0.0 0.0 0.00 0.00 0.00 99 1018.2
20260903104437 73 235 0.0 0.0 0.00 0.00 0.00 99 1018.2
20260903103935 73 238 0.0 0.0 0.00 0.00 0.00 99 1018.0
20260903103430 73 239 0.0 0.0 0.00 0.00 0.00 99 1018.1
20260903102926 73 239 0.0 0.0 0.00 0.00 0.00 99 1018.0
20260903102421 73 239 0.0 0.0 0.00 0.00 0.00 99 1018.2
20260903101920 73 219 0.0 0.0 0.00 0.00 0.00 99 1018.0
20260903101415 73 218 0.0 0.0 0.00 0.00 0.00 99 1018.2
20260903100910 73 218 0.0 0.0 0.00 0.00 0.00 99 1018.0
20260903100405 73 218 0.0 0.0 0.00 0.00 0.00 99 1018.0
20260903095902 74 218 0.0 0.0 0.00 0.00 0.00 99 1018.2
20260903095356 73 225 0.0 0.0 0.00 0.00 0.00 99 1018.4
20260903094851 73 231 0.0 0.0 0.00 0.00 0.00 99 1018.4
20260903094346 74 233 0.0 0.0 0.00 0.00 0.00 99 1018.2
20260903093842 73 232 0.0 0.0 0.00 0.00 0.00 99 1018.1
20260903093337 74 231 0.0 0.0 0.00 0.00 0.00 99 1018.3
20260903092832 74 233 0.0 0.0 0.00 0.00 0.00 99 1018.2
20260903092326 74 231 0.0 0.0 0.00 0.00 0.00 99 1018.0
20260903091825 74 231 0.0 0.0 0.00 0.00 0.00 99 1018.0
20260903091319 74 231 0.0 0.0 0.00 0.00 0.00 99 1017.8
20260903090815 74 231 0.0 0.0 0.00 0.00 0.00 99 1018.1
20260903090315 74 231 0.0 0.0 0.00 0.00 0.00 99 1017.8
20260903085813 74 233 0.0 0.0 0.00 0.00 0.00 99 1017.8
20260903085308 74 233 0.0 0.0 0.00 0.00 0.00 99 1017.8
20260903084806 74 231 0.0 0.0 0.00 0.00 0.00 99 1017.8
20260903084300 74 231 0.0 0.0 0.00 0.00 0.00 99 1017.7
20260903083755 74 231 0.0 0.0 0.00 0.00 0.00 99 1017.8
20260903083250 74 231 0.0 0.0 0.00 0.00 0.00 99 1017.6
20260903082749 74 231 0.0 0.0 0.00 0.00 0.00 99 1017.6
20260903082246 74 231 0.0 0.0 0.00 0.00 0.00 99 1017.4
20260903081745 74 231 0.0 0.0 0.00 0.00 0.00 99 1017.7
20260903081241 74 231 0.0 0.0 0.00 0.00 0.00 99 1017.6
20260903080737 74 242 0.0 0.0 0.00 0.00 0.00 99 1017.8
20260903080234 74 242 0.0 0.0 0.00 0.00 0.00 99 1017.9
20260903075734 74 242 0.0 0.0 0.00 0.00 0.00 99 1017.8
20260903075229 74 242 0.0 0.0 0.00 0.00 0.00 99 1017.8
20260903074728 74 242 0.0 0.0 0.00 0.00 0.00 99 1018.0
20260903074223 74 242 0.0 0.0 0.00 0.00 0.00 99 1017.9
20260903073718 74 242 0.0 0.0 0.00 0.00 0.00 99 1017.9
20260903073214 74 242 0.0 0.0 0.00 0.00 0.00 99 1018.0
20260903072710 74 244 0.0 0.0 0.00 0.00 0.00 99 1017.9
20260903072206 75 242 0.0 0.0 0.00 0.00 0.00 99 1018.0
20260903071702 75 242 0.0 0.0 0.00 0.00 0.00 99 1018.0
20260903071157 75 227 0.0 0.0 0.00 0.00 0.00 99 1018.1
20260903070657 75 227 0.0 0.0 0.00 0.00 0.00 99 1018.1
20260903070153 75 245 0.0 0.0 0.00 0.00 0.00 99 1018.0
20260903065647 75 245 0.0 0.0 0.00 0.00 0.00 99 1018.1
20260903065141 75 246 0.0 0.0 0.00 0.00 0.00 99 1018.2
20260903064640 75 250 0.0 0.0 0.00 0.00 0.00 99 1018.0
20260903064136 75 250 0.0 0.0 0.00 0.00 0.00 99 1018.1
20260903063632 75 235 0.0 0.0 0.00 0.00 0.00 99 1018.0
20260903063127 75 235 0.0 0.0 0.00 0.00 0.00 99 1018.0
20260903062623 75 235 0.0 0.0 0.00 0.00 0.00 99 1018.3
20260903062118 75 242 0.0 0.0 0.00 0.00 0.00 99 1018.3
20260903061613 75 231 0.0 0.0 0.00 0.00 0.00 99 1018.2
20260903061112 75 231 0.0 0.0 0.00 0.00 0.00 99 1018.3
20260903060607 75 219 0.0 0.0 0.00 0.00 0.00 99 1018.3
20260903055600 75 218 0.0 0.0 0.00 0.00 0.00 99 1018.4
20260903055058 76 199 0.0 1.0 0.00 0.00 0.00 99 1018.3
20260903054553 75 212 0.0 0.0 0.00 0.00 0.00 99 1018.3
20260903054049 76 197 0.0 0.0 0.00 0.00 0.00 99 1018.5
20260903053544 76 247 0.0 0.0 0.00 0.00 0.00 99 1018.4
20260903053041 76 212 0.0 0.0 0.00 0.00 0.00 99 1018.6
20260903052536 76 215 0.0 0.0 0.00 0.00 0.00 99 1018.7
20260903052032 76 215 0.0 0.0 0.00 0.00 0.00 99 1018.7
20260903051531 76 199 0.0 0.0 0.00 0.00 0.00 99 1019.1
20260903051027 76 258 0.0 0.0 0.00 0.00 0.00 99 1018.8
20260903050526 76 246 0.0 0.0 0.00 0.00 0.00 99 1018.9
20260903050022 76 266 0.0 0.0 0.00 0.00 0.00 99 1019.0
20260903045521 76 303 0.0 0.0 0.00 0.00 0.00 99 1018.8
20260903045018 76 254 0.0 1.0 0.00 0.00 0.00 99 1018.8
20260903044513 76 343 0.0 1.0 0.00 0.00 0.00 99 1018.9
20260903044009 76 254 0.0 0.0 0.00 0.00 0.00 99 1018.7
20260903043504 77 242 0.0 0.0 0.00 0.00 0.00 99 1018.7
20260903043003 77 3 0.0 0.0 0.00 0.00 0.00 99 1018.7
20260903042458 77 250 0.0 0.0 0.00 0.00 0.00 99 1018.6
20260903041954 77 315 0.0 0.0 0.00 0.00 0.00 99 1018.7
20260903041451 77 211 0.0 0.0 0.00 0.00 0.00 99 1018.4
20260903040946 77 122 0.0 1.0 0.00 0.00 0.00 99 1018.4
20260903040444 77 174 0.0 0.0 0.00 0.00 0.00 99 1018.4
20260903035941 76 262 0.0 0.0 0.00 0.02 0.02 99 1018.4
20260903035436 76 231 0.0 0.0 0.00 0.02 0.02 99 1018.3
20260903034932 76 231 0.0 0.0 0.00 0.02 0.02 99 1018.0
20260903034426 77 231 0.0 0.0 0.00 0.02 0.02 99 1018.3
20260903033921 77 231 0.0 0.0 0.00 0.02 0.02 99 1018.1
20260903033417 77 231 0.0 0.0 0.00 0.02 0.02 99 1018.1
20260903032912 77 235 0.0 0.0 0.00 0.02 0.02 99 1017.9
20260903032407 77 260 0.0 0.0 0.00 0.02 0.02 99 1017.9
20260903031902 77 246 0.0 0.0 0.00 0.02 0.02 99 1018.0
20260903031401 77 246 0.0 0.0 0.00 0.02 0.02 99 1017.9
20260903030857 77 242 0.0 0.0 0.00 0.02 0.02 99 1018.1
20260903030353 77 246 0.0 0.0 0.00 0.02 0.02 99 1018.0
20260903025848 77 247 0.0 0.0 0.00 0.02 0.02 99 1018.0
20260903025344 77 247 0.0 0.0 0.00 0.02 0.02 99 1017.9
20260903024844 77 247 0.0 0.0 0.00 0.02 0.02 99 1018.1
20260903024338 77 247 0.0 0.0 0.00 0.02 0.02 99 1018.2
20260903023833 77 247 0.0 0.0 0.00 0.02 0.02 99 1018.2
20260903023329 77 248 0.0 0.0 0.00 0.02 0.02 99 1018.2
20260903022824 78 247 0.0 0.0 0.00 0.02 0.02 99 1018.3
20260903022323 77 247 0.0 0.0 0.00 0.02 0.02 99 1018.2
20260903021817 78 250 0.0 0.0 0.00 0.02 0.02 99 1018.3
20260903021313 78 250 0.0 0.0 0.00 0.02 0.02 99 1018.2
20260903020812 78 254 0.0 0.0 0.00 0.02 0.02 99 1018.2
20260903020307 78 243 0.0 0.0 0.00 0.02 0.02 99 1018.4
20260903015803 78 244 0.0 0.0 0.00 0.02 0.02 98 1018.6
20260903015258 78 243 0.0 0.0 0.00 0.02 0.02 98 1018.5
20260903014753 78 242 0.0 0.0 0.00 0.02 0.02 98 1018.4
20260903014247 79 243 0.0 0.0 0.00 0.02 0.02 97 1018.5
20260903013742 79 246 0.0 0.0 0.00 0.02 0.02 97 1019.0
20260903013241 79 246 0.0 0.0 0.00 0.02 0.02 97 1018.7
20260903012739 79 221 0.0 0.0 0.00 0.02 0.02 97 1018.7
20260903012234 79 227 0.0 0.0 0.00 0.02 0.02 96 1018.8
20260903011728 79 225 0.0 0.0 0.00 0.02 0.02 96 1018.9
20260903011222 79 235 0.0 0.0 0.00 0.02 0.02 96 1018.7
20260903010718 80 280 0.0 0.0 0.00 0.02 0.02 95 1018.8
20260903010218 80 219 0.0 0.0 0.00 0.02 0.02 95 1018.8
20260903005716 80 227 0.0 0.0 0.00 0.02 0.02 95 1018.6
20260903005211 80 235 0.0 1.0 0.00 0.02 0.02 95 1018.7
20260903004707 80 231 0.0 0.0 0.00 0.02 0.02 95 1018.8
20260903004202 80 231 0.0 0.0 0.00 0.02 0.02 94 1018.3
20260903003658 80 108 1.0 1.0 0.00 0.02 0.02 94 1018.4
20260903003153 80 125 0.0 0.0 0.00 0.02 0.02 94 1018.2
20260903002648 80 238 0.0 0.0 0.00 0.02 0.02 94 1018.5
20260903002148 81 214 0.0 0.0 0.00 0.02 0.02 93 1018.5
20260903001643 81 233 0.0 0.0 0.00 0.02 0.02 93 1018.4
20260903001137 81 220 0.0 0.0 0.00 0.02 0.02 92 1018.4
20260903000633 81 223 0.0 0.0 0.00 0.02 0.02 91 1018.2
20260903000132 81 215 0.0 0.0 0.00 0.02 0.02 91 1018.1
20260902235631 82 238 0.0 1.0 0.00 0.02 0.02 91 1018.0
20260902235126 82 216 0.0 3.0 0.00 0.02 0.02 90 1017.9
20260902234620 82 141 0.0 1.0 0.00 0.02 0.02 90 1018.0
20260902234119 82 126 0.0 0.0 0.00 0.02 0.02 90 1018.1
20260902233614 82 215 0.0 0.0 0.00 0.02 0.02 89 1018.2
20260902233108 82 173 1.0 2.0 0.00 0.02 0.02 89 1018.2
20260902232608 82 1 0.0 1.0 0.00 0.02 0.02 90 1018.5
20260902232102 82 1 0.0 0.0 0.00 0.02 0.02 89 1018.8
20260902231556 82 351 0.0 1.0 0.00 0.02 0.02 90 1018.8
20260902231050 82 154 1.0 1.0 0.00 0.02 0.02 90 1018.4
20260902230545 82 294 1.0 1.0 0.00 0.02 0.02 91 1018.4
20260902230044 82 103 0.0 3.0 0.00 0.02 0.02 91 1018.4
20260902225540 82 132 0.0 2.0 0.00 0.02 0.02 92 1018.5
20260902225039 82 149 0.0 0.0 0.00 0.02 0.02 92 1018.7
20260902224538 82 158 1.0 2.0 0.00 0.02 0.02 92 1018.7
20260902224034 82 229 0.0 0.0 0.00 0.02 0.02 91 1018.8
20260902223530 82 219 0.0 1.0 0.00 0.02 0.02 91 1018.9
20260902223029 83 170 1.0 1.0 0.00 0.02 0.02 91 1019.1
20260902222528 83 243 0.0 1.0 0.00 0.02 0.02 90 1019.2
20260902222027 83 231 0.0 0.0 0.00 0.02 0.02 89 1018.4
20260902221521 83 212 0.0 0.0 0.00 0.02 0.02 88 1018.7
20260902221016 83 166 0.0 3.0 0.00 0.02 0.02 87 1018.6
20260902220512 84 235 1.0 4.0 0.00 0.02 0.02 87 1018.9
20260902220006 84 244 1.0 4.0 0.00 0.02 0.02 87 1018.8
20260902215502 85 148 1.0 3.0 0.00 0.02 0.02 86 1018.9
20260902214958 86 127 0.0 1.0 0.00 0.02 0.02 83 1018.8
20260902214457 86 250 0.0 1.0 0.00 0.02 0.02 83 1018.5
20260902213955 87 143 0.0 3.0 0.00 0.02 0.02 81 1018.7
20260902213452 86 216 0.0 0.0 0.00 0.02 0.02 82 1018.5
20260902212950 84 284 1.0 3.0 0.00 0.02 0.02 83 1018.7
20260902212447 84 153 0.0 1.0 0.00 0.02 0.02 86 1019.0
20260902211943 83 137 0.0 2.0 0.00 0.02 0.02 87 1019.1
20260902211439 82 238 0.0 0.0 0.00 0.02 0.02 87 1019.2
20260902210933 81 223 0.0 1.0 0.00 0.02 0.02 87 1018.9
20260902210428 80 152 2.0 2.0 0.07 0.02 0.02 89 1018.8
20260902205921 80 228 0.0 0.0 0.12 0.02 0.02 88 1018.7
20260902205415 81 227 0.0 1.0 0.05 0.01 0.01 82 1019.2
20260902204906 81 214 0.0 0.0 0.00 0.00 0.00 78 1019.2
20260902204405 81 322 2.0 4.0 0.00 0.00 0.00 78 1019.5
20260902203901 82 29 4.0 10.0 0.00 0.00 0.00 77 1019.1
20260902203355 85 21 6.0 10.0 0.00 0.00 0.00 70 1018.8
20260902202850 87 91 4.0 8.0 0.00 0.00 0.00 73 1019.0
20260902202346 91 8 0.0 3.0 0.00 0.00 0.00 71 1018.9
20260902201843 93 230 2.0 6.0 0.00 0.00 0.00 65 1019.0
20260902201342 93 114 1.0 3.0 0.00 0.00 0.00 64 1018.5
20260902200837 95 272 0.0 2.0 0.00 0.00 0.00 61 1018.4
20260902200332 96 13 3.0 6.0 0.00 0.00 0.00 56 1018.5
20260902195828 96 155 0.0 3.0 0.00 0.00 0.00 57 1018.5
20260902195327 96 27 1.0 2.0 0.00 0.00 0.00 56 1018.4
20260902194822 95 245 0.0 1.0 0.00 0.00 0.00 58 1018.4
20260902194316 96 338 2.0 3.0 0.00 0.00 0.00 56 1018.3
20260902193812 95 237 0.0 0.0 0.00 0.00 0.00 62 1018.1
20260902193308 96 160 2.0 3.0 0.00 0.00 0.00 55 1018.2
20260902192807 96 179 0.0 4.0 0.00 0.00 0.00 57 1018.2
20260902192307 96 354 1.0 3.0 0.00 0.00 0.00 56 1018.4
20260902191805 96 228 0.0 2.0 0.00 0.00 0.00 58 1018.4
20260902191300 96 228 0.0 0.0 0.00 0.00 0.00 56 1018.5
20260902190755 95 246 0.0 1.0 0.00 0.00 0.00 56 1018.6
20260902190255 95 312 0.0 2.0 0.00 0.00 0.00 57 1018.5
20260902185751 97 2 2.0 7.0 0.00 0.00 0.00 56 1018.6
20260902185246 97 192 1.0 3.0 0.00 0.00 0.00 56 1018.7
20260902184743 97 45 2.0 3.0 0.00 0.00 0.00 55 1018.7
20260902184242 97 59 3.0 3.0 0.00 0.00 0.00 56 1018.7
20260902183738 97 137 1.0 2.0 0.00 0.00 0.00 57 1018.8
20260902183234 96 244 0.0 3.0 0.00 0.00 0.00 56 1018.8
20260902182730 96 228 0.0 2.0 0.00 0.00 0.00 58 1018.7
20260902182227 95 36 3.0 6.0 0.00 0.00 0.00 57 1018.8
20260902181723 95 239 2.0 3.0 0.00 0.00 0.00 59 1018.9
20260902181222 95 10 4.0 7.0 0.00 0.00 0.00 58 1018.9
20260902180717 95 352 2.0 2.0 0.00 0.00 0.00 57 1019.0
20260902180213 94 172 0.0 3.0 0.00 0.00 0.00 59 1019.1
20260902175708 94 295 0.0 1.0 0.00 0.00 0.00 59 1019.0
20260902175204 93 249 0.0 3.0 0.00 0.00 0.00 61 1019.0
20260902174659 96 352 1.0 3.0 0.00 0.00 0.00 59 1019.1
20260902174155 95 170 1.0 2.0 0.00 0.00 0.00 59 1018.9
20260902173650 96 110 1.0 2.0 0.00 0.00 0.00 58 1019.1
20260902173145 96 222 0.0 1.0 0.00 0.00 0.00 57 1019.0
20260902172639 96 223 0.0 1.0 0.00 0.00 0.00 57 1019.2
20260902172138 97 10 3.0 4.0 0.00 0.00 0.00 54 1019.0
20260902171634 98 198 0.0 2.0 0.00 0.00 0.00 57 1019.2
20260902171130 96 285 1.0 2.0 0.00 0.00 0.00 56 1019.0
20260902170625 96 308 2.0 7.0 0.00 0.00 0.00 57 1019.0
20260902170121 96 174 0.0 3.0 0.00 0.00 0.00 56 1019.0
20260902165620 96 258 1.0 2.0 0.00 0.00 0.00 57 1019.1
20260902165115 96 165 1.0 4.0 0.00 0.00 0.00 58 1019.2
20260902164610 96 304 2.0 2.0 0.00 0.00 0.00 56 1019.1
20260902164109 95 38 1.0 2.0 0.00 0.00 0.00 56 1019.1
20260902163605 94 301 1.0 2.0 0.00 0.00 0.00 59 1019.1
20260902163103 94 359 3.0 4.0 0.00 0.00 0.00 57 1019.2
20260902162603 95 245 2.0 2.0 0.00 0.00 0.00 60 1019.2
20260902162058 94 27 1.0 3.0 0.00 0.00 0.00 59 1019.2
20260902161552 94 140 1.0 6.0 0.00 0.00 0.00 60 1019.4
20260902161048 94 279 2.0 4.0 0.00 0.00 0.00 61 1019.1
20260902160544 95 349 1.0 4.0 0.00 0.00 0.00 59 1019.3
20260902160039 95 229 1.0 2.0 0.00 0.00 0.00 59 1019.2
20260902155532 94 245 2.0 4.0 0.00 0.00 0.00 61 1019.4
20260902155031 94 222 1.0 1.0 0.00 0.00 0.00 59 1019.6
20260902154527 93 15 1.0 4.0 0.00 0.00 0.00 63 1019.4
20260902154021 94 24 1.0 1.0 0.00 0.00 0.00 61 1019.4
20260902153520 94 235 0.0 2.0 0.00 0.00 0.00 61 1019.4
20260902153015 94 252 1.0 4.0 0.00 0.00 0.00 63 1019.3
20260902152512 92 235 0.0 1.0 0.00 0.00 0.00 63 1019.4
20260902152007 93 0 0.0 3.0 0.00 0.00 0.00 65 1019.3
20260902151503 92 251 1.0 3.0 0.00 0.00 0.00 66 1019.6
20260902150956 92 257 2.0 3.0 0.00 0.00 0.00 63 1019.5
20260902150452 92 237 1.0 2.0 0.00 0.00 0.00 65 1019.5
20260902145952 91 350 2.0 6.0 0.00 0.00 0.00 65 1019.4
20260902145447 93 269 0.0 2.0 0.00 0.00 0.00 64 1019.4
20260902144941 91 273 1.0 2.0 0.00 0.00 0.00 67 1019.6
20260902144437 92 307 3.0 7.0 0.00 0.00 0.00 66 1019.6
20260902143932 91 238 2.0 3.0 0.00 0.00 0.00 67 1019.6
20260902143427 90 239 0.0 2.0 0.00 0.00 0.00 69 1019.6
20260902142922 90 10 3.0 4.0 0.00 0.00 0.00 68 1019.6
20260902142419 90 332 1.0 4.0 0.00 0.00 0.00 68 1019.7
20260902141914 89 342 1.0 2.0 0.00 0.00 0.00 68 1019.5
20260902141409 89 120 2.0 2.0 0.00 0.00 0.00 69 1019.5
20260902140908 89 282 1.0 2.0 0.00 0.00 0.00 69 1019.4
20260902140404 88 357 0.0 3.0 0.00 0.00 0.00 72 1019.5
20260902135858 88 220 0.0 3.0 0.00 0.00 0.00 71 1019.2
20260902135354 88 224 0.0 2.0 0.00 0.00 0.00 75 1019.3
20260902134853 87 172 1.0 2.0 0.00 0.00 0.00 74 1019.2
20260902134349 87 352 3.0 4.0 0.00 0.00 0.00 73 1019.1
20260902133843 86 17 0.0 1.0 0.00 0.00 0.00 74 1019.1
20260902133343 86 10 2.0 2.0 0.00 0.00 0.00 75 1019.1
20260902132838 85 33 1.0 3.0 0.00 0.00 0.00 76 1018.9
20260902132333 86 37 3.0 3.0 0.00 0.00 0.00 75 1019.1
20260902131829 86 351 3.0 4.0 0.00 0.00 0.00 75 1019.0
20260902131326 85 217 0.0 0.0 0.00 0.00 0.00 75 1019.2
20260902130825 85 198 1.0 2.0 0.00 0.00 0.00 75 1019.0
20260902130321 85 16 0.0 1.0 0.00 0.00 0.00 75 1019.1
20260902125816 84 184 1.0 3.0 0.00 0.00 0.00 76 1019.1
20260902125312 86 280 1.0 2.0 0.00 0.00 0.00 75 1019.0
20260902124808 85 354 1.0 1.0 0.00 0.00 0.00 75 1019.0
20260902124303 84 1 0.0 1.0 0.00 0.00 0.00 76 1019.1
20260902123758 84 12 1.0 4.0 0.00 0.00 0.00 77 1019.1
20260902123254 83 355 2.0 4.0 0.00 0.00 0.00 78 1019.0
20260902122752 83 348 1.0 3.0 0.00 0.00 0.00 78 1018.9
20260902122249 83 233 0.0 2.0 0.00 0.00 0.00 78 1019.0
20260902121743 82 336 3.0 3.0 0.00 0.00 0.00 78 1018.8
20260902121238 82 329 0.0 3.0 0.00 0.00 0.00 79 1019.0
20260902120733 81 346 3.0 7.0 0.00 0.00 0.00 79 1018.8
20260902120229 81 318 2.0 2.0 0.00 0.00 0.00 80 1018.9